Tracking 18945 objects as of 19-Jan-2018
HD Live streaming from Space Station
objects crossing your sky now

FENGYUN 1C DEB

Track FENGYUN 1C DEB now!
10-day predictions


NORAD ID: 30233
Int'l Code: 1999-025WS
Perigee: 702.6 km
Apogee: 780.7 km
Inclination: 99.0 °
Period: 99.5 minutes
Semi major axis: 7112 km
RCS: 0.044 m2 (small)
Launch date: May 10, 1999
Source: People's Republic of China (PRC)
Launch site: Taiyaun Space Center, China (TSC)

Note: This is SATELLITE DEBRIS
aabbcc
Your satellite tracking list
Your tracking list is empty




NASA's NSSDC Master Catalog

Two Line Element Set (TLE):
1 30233U 99025WS  18018.90541767 +.00001313 +00000-0 +36611-3 0  9991
2 30233 099.0455 248.5791 0054937 163.2878 197.0139 14.47294418575713
Source of the keplerian elements: AFSPC